This demonstration page uses our WeatherBlox Daily Observations layout. Learn more.

Left ArrowRight Arrow

34.16533, -84.80231

Hourly Observations for June 16, 2022

Temp ( °F °C ) Dew Point ( °F °C ) Humidity (%) Winds ( mph kmh ) Pressure ( in mb ) Visibility ( mi km ) Precip ( " mm )
12:15 am 00:15 Cloudy 77 25 70 21 79 79 WSW 5 7 30.11 1020 10 16 0.00 0.00
12:35 am 00:35 Mostly Cloudy with Nearby Thunderstorms 77 25 70 21 79 79 Calm 30.12 1020 10 16 0.00 0.00
12:55 am 00:55 Cloudy 77 25 72 22 83 83 SSW 3 6 30.12 1020 10 16 0.00 0.00
1:15 am 01:15 Cloudy 77 25 68 20 74 74 VRB 6 9 30.11 1020 10 16 0.00 0.00
1:35 am 01:35 Cloudy 77 25 68 20 74 74 W 8 13 30.11 1020 10 16 0.00 0.00
1:55 am 01:55 Cloudy 75 24 68 20 78 78 E 5 7 30.11 1020 10 16 0.00 0.00
2:15 am 02:15 Mostly Cloudy 77 25 64 18 65 65 Calm 30.10 1019 10 16 0.00 0.00
2:35 am 02:35 Mostly Cloudy 77 25 66 19 69 69 Calm 30.10 1019 10 16 0.00 0.00
2:55 am 02:55 Mostly Cloudy 73 23 66 19 78 78 E 6 9 30.10 1019 10 16 0.00 0.00
3:15 am 03:15 Mostly Cloudy 73 23 70 21 89 89 Calm 30.09 1019 10 16 0.00 0.00
3:35 am 03:35 Cloudy 73 23 70 21 89 89 Calm 30.09 1019 10 16 0.00 0.00
3:55 am 03:55 Cloudy 73 23 70 21 89 89 Calm 30.10 1019 10 16 0.00 0.00
4:15 am 04:15 Cloudy 73 23 70 21 89 89 ENE 3 6 30.09 1019 10 16 0.00 0.00
4:35 am 04:35 Cloudy 73 23 70 21 89 89 Calm 30.09 1019 10 16 0.00 0.00
4:55 am 04:55 Cloudy 73 23 70 21 89 89 Calm 30.09 1019 10 16 0.00 0.00
5:15 am 05:15 Mostly Cloudy 73 23 72 22 94 94 Calm 30.09 1019 9 14 0.00 0.00
5:35 am 05:35 Mostly Cloudy 73 23 70 21 89 89 Calm 30.10 1019 10 16 0.00 0.00
5:55 am 05:55 Cloudy 73 23 70 21 89 89 Calm 30.11 1020 10 16 0.00 0.00
6:15 am 06:15 Partly Cloudy 73 23 70 21 89 89 Calm 30.11 1020 10 16 0.00 0.00
6:35 am 06:35 Sunny 72 22 70 21 94 94 Calm 30.13 1020 10 16 0.00 0.00
6:55 am 06:55 Sunny 72 22 72 22 100 100 Calm 30.14 1021 10 16 0.00 0.00
7:15 am 07:15 Sunny 73 23 72 22 94 94 Calm 30.13 1020 10 16 0.00 0.00
7:35 am 07:35 Sunny 73 23 70 21 89 89 Calm 30.14 1021 10 16 0.00 0.00
7:55 am 07:55 Sunny 75 24 70 21 83 83 Calm 30.14 1021 10 16 0.00 0.00
8:15 am 08:15 Sunny 77 25 70 21 79 79 Calm 30.15 1021 10 16 0.00 0.00
8:35 am 08:35 Sunny 77 25 72 22 83 83 Calm 30.16 1021 10 16 0.00 0.00
8:55 am 08:55 Sunny 79 26 72 22 79 79 Calm 30.16 1021 10 16 0.00 0.00
9:15 am 09:15 Sunny 81 27 70 21 70 70 Calm 30.15 1021 10 16 0.00 0.00
9:35 am 09:35 Sunny 81 27 70 21 70 70 NW 5 7 30.15 1021 10 16 0.00 0.00
9:55 am 09:55 Sunny 82 28 72 22 70 70 W 3 6 30.16 1021 10 16 0.00 0.00
10:15 am 10:15 Sunny 84 29 72 22 66 66 VRB 5 7 30.16 1021 10 16 0.00 0.00
10:35 am 10:35 Sunny 86 30 70 21 59 59 Calm 30.15 1021 10 16 0.00 0.00
10:55 am 10:55 Sunny 88 31 73 23 62 62 Calm 30.14 1021 10 16 0.00 0.00
11:15 am 11:15 Sunny 88 31 73 23 62 62 VRB 5 7 30.14 1021 10 16 0.00 0.00
11:35 am 11:35 Sunny 90 32 73 23 59 59 Calm 30.14 1021 10 16 0.00 0.00
11:55 am 11:55 Sunny 90 32 72 22 55 55 VRB 5 7 30.14 1021 10 16 0.00 0.00
12:15 pm 12:15 Sunny 90 32 72 22 55 55 N 6 9 30.13 1020 10 16 0.00 0.00
12:35 pm 12:35 Sunny 90 32 73 23 59 59 VRB 5 7 30.13 1020 10 16 0.00 0.00
12:55 pm 12:55 Sunny 91 33 73 23 56 56 VRB 5 7 30.12 1020 10 16 0.00 0.00
1:15 pm 13:15 Sunny 91 33 75 24 59 59 VRB 5 7 30.12 1020 10 16 0.00 0.00
1:35 pm 13:35 Sunny 91 33 75 24 59 59 VRB 6 9 30.11 1020 10 16 0.00 0.00
1:55 pm 13:55 Sunny 93 34 75 24 56 56 W 6 9 30.11 1020 10 16 0.00 0.00
2:15 pm 14:15 Sunny 93 34 75 24 56 56 VRB 7 11 30.10 1019 10 16 0.00 0.00
2:35 pm 14:35 Sunny 93 34 73 23 53 53 VRB 5 7 30.09 1019 10 16 0.00 0.00
2:55 pm 14:55 Sunny 93 34 75 24 56 56 WNW 7 11 30.09 1019 10 16 0.00 0.00
3:15 pm 15:15 Sunny 93 34 73 23 53 53 Calm 30.08 1019 10 16 0.00 0.00
3:35 pm 15:35 Sunny 93 34 73 23 53 53 VRB 5 7 30.08 1019 10 16 0.00 0.00
3:55 pm 15:55 Sunny 95 35 73 23 50 50 Calm 30.06 1018 10 16 0.00 0.00
4:15 pm 16:15 Sunny 95 35 73 23 50 50 SW 3 6 30.05 1018 10 16 0.00 0.00
4:35 pm 16:35 Sunny 95 35 73 23 50 50 ESE 6 9 30.05 1018 10 16 0.00 0.00
4:55 pm 16:55 Sunny 95 35 73 23 50 50 Calm 30.04 1017 10 16 0.00 0.00
5:15 pm 17:15 Sunny 95 35 73 23 50 50 VRB 5 7 30.03 1017 10 16 0.00 0.00
5:35 pm 17:35 Partly Cloudy 95 35 73 23 50 50 Calm 30.03 1017 10 16 0.00 0.00
5:55 pm 17:55 Partly Cloudy 95 35 73 23 50 50 W 7 11 30.02 1017 10 16 0.00 0.00
6:15 pm 18:15 Mostly Sunny 95 35 73 23 50 50 W 6 9 30.01 1016 10 16 0.00 0.00
6:35 pm 18:35 Sunny 95 35 73 23 50 50 VRB 5 7 30.01 1016 10 16 0.00 0.00
6:55 pm 18:55 Sunny 93 34 73 23 53 53 W 8 13 30.02 1016 10 16 0.00 0.00
7:15 pm 19:15 Sunny 93 34 73 23 53 53 W 7 11 30.01 1016 10 16 0.00 0.00
7:35 pm 19:35 Sunny 93 34 73 23 53 53 W 6 9 30.01 1016 10 16 0.00 0.00
7:55 pm 19:55 Sunny 91 33 73 23 56 56 W 6 9 30.02 1017 10 16 0.00 0.00
8:15 pm 20:15 Sunny 91 33 73 23 56 56 Calm 30.02 1017 10 16 0.00 0.00
8:35 pm 20:35 Mostly Cloudy 91 33 73 23 56 56 Calm 30.03 1017 10 16 0.00 0.00
8:55 pm 20:55 Mostly Clear 90 32 75 24 63 63 Calm 30.03 1017 10 16 0.00 0.00
9:15 pm 21:15 Clear 88 31 73 23 62 62 Calm 30.03 1017 10 16 0.00 0.00
9:35 pm 21:35 Mostly Cloudy 88 31 75 24 66 66 Calm 30.03 1017 10 16 0.00 0.00
9:55 pm 21:55 Cloudy 86 30 77 25 75 75 Calm 30.05 1017 10 16 0.00 0.00
10:15 pm 22:15 Cloudy 86 30 75 24 70 70 Calm 30.07 1018 10 16 0.00 0.00
10:35 pm 22:35 Cloudy with Nearby Thunderstorms 84 29 75 24 74 74 Calm 30.08 1019 10 16 0.00 0.00
10:55 pm 22:55 Mostly Cloudy with Nearby Thunderstorms 84 29 75 24 74 74 Calm 30.09 1019 10 16 0.00 0.00
11:15 pm 23:15 Mostly Cloudy with Nearby Thunderstorms 84 29 73 23 70 70 VRB 7 11 30.10 1019 10 16 0.00 0.00
11:35 pm 23:35 Mostly Clear with Nearby Thunderstorms 84 29 68 20 58 58 SE 9 15 30.10 1019 10 16 0.00 0.00
11:55 pm 23:55 Partly Cloudy with Nearby Thunderstorms 84 29 64 18 51 51 SSE 16 26 30.12 1020 10 16 0.00 0.00

Powered by AerisWeather